Location: Waco, TX
(31.5480°N, 97.1670°W)
Time: 23:21:23
(UTC-05:00)

ISS - All Passes

Search period start: 17 August 2018 00:00
Search period end: 27 August 2018 00:00
Orbit: 402 x 409 km, 51.6° (Epoch: 18 August)

Date Brightness Start Highest point End Pass type
(mag) Time Alt. Az. Time Alt. Az. Time Alt. Az.
17 Aug - 09:53:06 10° SSW 09:56:02 31° SE 09:58:57 10° ENE daylight
17 Aug - 11:30:12 10° W 11:32:33 18° NW 11:34:55 10° N daylight
17 Aug - 18:00:59 10° NNW 18:04:06 41° NE 18:07:13 10° ESE daylight
17 Aug - 19:38:56 10° W 19:40:17 12° SW 19:41:37 10° SSW daylight
18 Aug - 09:02:22 10° SSE 09:04:14 14° SE 09:06:07 10° E daylight
18 Aug - 10:37:29 10° WSW 10:40:29 34° NW 10:43:29 10° NNE daylight
18 Aug - 17:09:28 10° NNW 17:12:03 21° NE 17:14:37 10° E daylight
18 Aug - 18:45:44 10° WNW 18:48:30 26° SW 18:51:16 10° S daylight
19 Aug - 09:45:14 10° SW 09:48:29 77° NW 09:51:45 10° NE daylight
19 Aug - 16:18:27 10° N 16:19:53 12° NNE 16:21:18 10° ENE daylight
19 Aug - 17:53:25 10° NW 17:56:38 60° SW 17:59:51 10° SSE daylight
20 Aug - 08:53:27 10° SSW 08:56:34 43° SE 08:59:41 10° ENE daylight
20 Aug - 10:31:16 10° WNW 10:33:12 15° NW 10:35:10 10° N daylight
20 Aug - 17:01:28 10° NW 17:04:41 56° NE 17:07:53 10° ESE daylight
21 Aug - 08:02:17 10° S 08:04:43 19° SE 08:07:08 10° E daylight
21 Aug - 09:38:15 10° W 09:41:03 26° NW 09:43:52 10° NNE daylight
21 Aug - 16:09:48 10° NNW 16:12:38 26° NE 16:15:27 10° E daylight
21 Aug - 17:46:34 10° W 17:48:58 19° SW 17:51:22 10° S daylight
22 Aug - 08:45:47 10° WSW 08:48:59 55° NW 08:52:11 10° NE daylight
22 Aug - 15:18:29 10° N 15:20:28 15° NE 15:22:26 10° ENE daylight
22 Aug - 16:53:59 10° WNW 16:57:06 42° SW 17:00:12 10° SSE daylight
23 Aug - 07:53:47 10° SW 07:57:00 62° SE 08:00:13 10° NE daylight
23 Aug - 09:32:23 10° WNW 09:33:46 12° NNW 09:35:09 10° N daylight
23 Aug - 16:01:52 10° NW 16:05:08 78° NE 16:08:23 10° SE daylight
24 Aug - 07:02:18 10° S 07:05:05 26° SE 07:07:52 10° ENE daylight
24 Aug - 08:38:58 10° W 08:41:32 21° NW 08:44:05 10° NNE daylight
24 Aug - 15:10:04 10° NNW 15:13:04 34° NE 15:16:05 10° ESE daylight
24 Aug - 16:47:28 10° W 16:49:19 14° SW 16:51:09 10° SSW daylight
25 Aug - 06:11:51 10° SSE 06:13:13 12° SE 06:14:36 10° E visible
25 Aug - 07:46:17 10° WSW 07:49:23 40° NW 07:52:30 10° NNE daylight
25 Aug - 14:18:32 10° N 14:20:55 18° NE 14:23:17 10° E daylight
25 Aug - 15:54:31 10° WNW 15:57:26 31° SW 16:00:21 10° SSE daylight
26 Aug - 06:54:04 10° SW 06:57:19 87° SE 07:00:36 10° NE daylight
26 Aug - 13:27:46 10° NNE 13:28:38 11° NNE 13:29:31 10° NE daylight
26 Aug - 15:02:13 10° NW 15:05:28 75° SW 15:08:42 10° SE daylight
